Druckansicht
zurück zur Ausschreibung

Teilnehmerliste für 2. Lange Laufnacht - Runners Track Night

Meldestatistik: 431 Meldungen / 414 Teilnehmer / 142 Vereine

Klassenübersicht

männliche Jugend U18: 800m /  1.500m /  5.000m  
männliche Jugend U20: 800m /  1.500m /  5.000m  
Männer: 800m /  1.500m /  5.000m  
weibliche Jugend U18: 800m /  1.500m /  3.000m /  5.000m  
weibliche Jugend U20: 800m /  1.500m /  3.000m /  5.000m  
Frauen: 800m /  1.500m /  3.000m /  5.000m  
 
männliche Jugend U18
800 m Lauf  (18 Teilnehmer)  zur Klassenübersicht
42659 Sidney Castillo 2000 LAZ Ludwigsburg 1:55,66
601015 Marius Kneip 2000 SL LC Rehlingen 1:56,00
600453 Max Kießling 2000 TH SV Gera-Lusan 75 1:56,60
138450 Tim Erdmann 2000 SN SC DHfK Leipzig 1:57,28
99050 Tobias Rex 2001 TH Erfurter LAC 1:58,44
600629 Marius REICHERT 2001 PF ABC Ludwigshafen 1:58,57
264639 Benedikt Brem 2000 BY LG TELIS FINANZ Regensburg 1:59,63
111498 Hannes Schäfer 2000 HE TV Groß-Gerau 2:02,00
23537 Jonas Rosenlicht 2000 BA LAC Freiburg 2:04,95
600439 Sebastian Blessing 2000 PF TV Rheinzabern 2:05,28
26030 Max Janta 2000 BA MTG Mannheim 2:05,72
41773 Marcel Haag 2001 LG farbtex Nordschwarzwald 2:05,90
23121 Robert Brune 2002 BA SG Walldorf Astoria 1902 2:06,04
138816 Rocco Martin 2001 SN SG Motor Gohlis-Nord 2:06,54
19638 Tim Auer 2000 BA DJK Hockenheim 2:07,87
48149 Davide Hailer 2000 LV Pliezhausen 2012 2:10,00
19609 Niklas Huber 2001 BA LG Baar 2:21,62
23136 Luca Wagner 2000 BA LG Kurpfalz
1.500 m Lauf  (10 Teilnehmer)  zur Klassenübersicht
152769 Elias Schreml 2000 WE LG Olympia Dortmund 3:55,00
600026 Sven Wagner 2001 RH USC Mainz 3:57,91
601756 Niklas Krämer 2000 HE Wiesbadener LA Verein 4:00,20
600628 David Mahnke 2001 PF ABC Ludwigshafen 4:08,45
138928 Lenny Baum 2000 SN SC DHfK Leipzig 4:11,29
264915 Paul Feuerer 2001 BY 1. FC Passau 4:14,80
46444 Kelvin Keim 2000 VfL Waiblingen 4:16,52
45669 Daniel Hiller 2001 VfL Waiblingen 4:19,85
27277 Elias Feuersenger 2001 BA LAC Freiburg 4:20,01
24679 Raphael Dumm 2000 BA LAC Freiburg 4:25,01
5.000 m Lauf  (0 Teilnehmer)  zur Klassenübersicht
männliche Jugend U20
800 m Lauf  (27 Teilnehmer)  zur Klassenübersicht
18472 Pascal Kleyer 1998 BA LG Region Karlsruhe 1:48,50
601285 Niklas Harsy 1998 HE LAZ Gießen Stadt und Land 1:50,84
137322 Constantin König 1998 SN SG Motor Gohlis-Nord 1:51,59
41524 Tobias Ferreira 1999 LG Filder 1:51,91
90280 Leopold Stefanski 1998 TH Erfurter LAC 1:52,84
Finn Kristian Merten 1999 WE TV Wattenscheid 01 1:53,49
109988 Oskar Schwarzer 1999 HE TV Groß-Gerau 1:53,94
93720 Max Körner 1999 TH Erfurter LAC 1:53,99
42538 Max Dieterich 1999 NI LG Braunschweig 1:54,35
6247 Conrad Kieselberger 1999 BB Mahlower SV 1977 1:54,85
137797 Jonas Rödiger 1999 SN SC DHfK Leipzig 1:55,22
15885 Jonas Dudda 1998 BA LG Kurpfalz 1:55,31
42289 Clemens Schober 1998 LG Neckar-Enz 1:56,05
41872 Jonte Fischer 1999 LG Neckar-Enz 1:56,20
600315 Niklas Iking 1999 RL LG Maifeld-Pellenz 1:56,33
9107 Manuel Walicki 1998 BE LG Nord Berlin 1:56,36
41840 Jeremy Bensz 1998 TSG 1845 Heilbronn 1:57,00
137911 Fabian Netscher 1999 SN SG Motor Gohlis-Nord 1:57,86
48140 Niklas Fischer 1998 VfB LC Friedrichshafen 1:58,05
40481 Daniel Rein 1998 LV Pliezhausen 2012 1:59,29
600449 Moritz Estelmann 1999 PF TV Rheinzabern 1:59,34
600602 Johannes Fuchs 1999 PF TV Rheinzabern 2:00,20
20044 Vincent Schwenk 1998 BA TV Lahr 2:01,95
18252 Alexander Kessler 1999 BA LG Region Karlsruhe 2:02,20
15574 Markus Weiser 1998 BA TB Wilferdingen 2:02,28
16886 Georg Sickinger 1998 BA LG Region Karlsruhe 2:05,00
18067 Hendrik Schillinger 1999 BA LG Kurpfalz 2:13,10
1.500 m Lauf  (27 Teilnehmer)  zur Klassenübersicht
603142 Owen Day 1998 NO LAV Bayer Uerdingen/Dormagen 3:45,32
502870 Mohamed Mohumed 1999 WE LG Olympia Dortmund 3:48,99
39624 Nicolai Christ 1998 SG Schorndorf 1846 3:52,70
137780 Jonathan Schmidt 1999 SN Dresdner SC 1898 3:53,25
40670 Robert Baumann 1998 LAV Stadtwerke Tübingen 3:53,94
600372 Mohamed Bassou 1998 HE TV Waldstraße Wiesbaden 3:57,45
40664 Patrick Weisser 1998 VfB LC Friedrichshafen 3:58,15
13421 Maximilian Feist 1999 WE VfL Kamen 3:58,18
600596 Till Grommisch 1999 NO TLV Germania Überruhr 3:58,66
600537 Emil Leibrock 1999 PF LC Haßloch 4:00,00
15887 Yannik Dudda 1998 BA LG Kurpfalz 4:02,14
137805 Vincent Paul 1999 SN SC DHfK Leipzig 4:03,52
26116 Florentin Caesar 1999 BA MTG Mannheim 4:06,33
13420 Constantin Feist 1999 WE VfL Kamen 4:07,71
258577 Felix Adler 1998 BY 1. FC Passau 4:07,72
258578 Lorenz Adler 1998 BY 1. FC Passau 4:07,73
264914 Maximilian Feuerer 1999 BY 1. FC Passau 4:08,34
31765 Silvan Rauscher 1998 TSG Münsingen 4:09,70
138058 Max Richter 1999 SN SC DHfK Leipzig 4:09,99
603472 Erik Temper 1998 SN LG Vogtland 4:10,54
25109 Ayoub Kabriti 1999 BA LAC Freiburg 4:11,23
24540 Leonard Ketterer 1998 BA LG Region Karlsruhe 4:11,54
41543 Christian Silcher 1999 TSG 1845 Heilbronn 4:15,20
149419 Sebastian Niehues 1999 WE VfL Kamen 4:20,22
27172 Collin Haug 1998 BA LG Region Karlsruhe 4:24,13
48139 Manuel Jäger 1999 VfB LC Friedrichshafen 4:28,02
40593 Michael Mahl 1998 LG Neckar-Enz
5.000 m Lauf  (10 Teilnehmer)  zur Klassenübersicht
20159 Markus Görger 1998 BA LAC Freiburg 14:15,01
22246 Steffen Ulmrich 1998 BA MTG Mannheim 14:40,00
601748 Ilyas Yonis Osman 1999 HE TV Waldstraße Wiesbaden 14:49,36
261773 Hannes Burger 1999 BY Läuferclub Buchendorf 15:00,00
600400 Jannik Weiß 1999 RL LG Rhein-Wied 15:24,00
600374 Nelson Rück 1998 RL Lauffreunde Naheland 15:25,00
26702 Moritz Söffge 1999 BA LAC Freiburg 15:29,01
27152 Yemane Gebrezgher 1998 BA LAC Freiburg 15:45,01
48506 Dustin Uhlig 1999 Tri Team Heuchelberg 15:47,30
16886 Georg Sickinger 1998 BA LG Region Karlsruhe 16:52,08
Männer
800 m Lauf  (58 Teilnehmer)  zur Klassenübersicht
601514 Robin Schembera 1988 NO TSV Bayer 04 Leverkusen 1:46,20
26638 Benedikt Huber 1989 BY LG TELIS FINANZ Regensburg 1:46,57
136957 Robert Farken 1997 SN SC DHfK Leipzig 1:46,65
2582 Christoph Kessler 1995 BA LG Region Karlsruhe 1:47,02
138229 Jan Riedel 1989 SN Dresdner SC 1898 1:47,27
22495 Denis Bäuerle 1989 LG farbtex Nordschwarzwald 1:47,28
600119 Pascal Unbehaun 1996 TH Erfurter LAC 1:47,50
146391 Marko Arthofer 1990 HE LG SSG/VfL Bensheim 1:49,60
14032 Holger Körner 1993 BA LG Region Karlsruhe 1:50,08
601020 Daniel Rhodes 1993 SL LSG Sbr.-Sulzbachtal 1:50,39
601184 Fabian Spinrath 1992 NO LAV Bayer Uerdingen/Dormagen 1:51,00
260843 Tim Englbrecht 1997 BY LG Region Landshut 1:51,13
600538 Marc Tortell 1997 HE TV 1897 Rendel e.V. 1:51,20
Christopher Wenzel 1995 HE LAZ Gießen Stadt und Land 1:51,58
253579 Dario Tippmann 1994 BY LAC Quelle Fürth 1:51,64
601424 Thorben Juschka 1991 NO LAZ PUMA Rhein-Sieg 1:51,66
601136 Oliver Beck 1992 HE TSV Pfungstadt 1:51,79
27406 Erik Franz 1991 VfL Sindelfingen 1:51,83
34211 Jan-Niklas Böhm 1988 NI OTB Osnabrück 1:52,30
27406 Omar Janreh 1995 BA MTG Mannheim 1:52,32
256274 Adrian König-Rannenberg 1993 BY LG Stadtwerke München 1:52,34
24451 Luca Völkle 1994 BA TV Konstanz 1:52,50
600290 Kai Seewald 1995 SL LC Rehlingen 1:52,55
600386 Jakob Giese 1994 RL LG Vulkaneifel 1:52,78
32723 Ludwig Sämann 1991 SG Schorndorf 1846 1:53,30
138626 Niklas Cervinka 1996 SN SC DHfK Leipzig 1:53,43
260575 Alexander Barth 1991 BY LSC Höchstadt/Aisch 1:53,80
271201 Hannes Schiffereger 1995 BY LG Stadtwerke München 1:53,83
273202 Moritz Beinlich 1996 BY LG TELIS FINANZ Regensburg 1:54,23
600231 Daniel Jeckel 1997 RH TSV Schott Mainz 1:55,00
17012 Lukas Bartmann 1995 BA LC Breisgau 1:55,00
601766 Alexander Boelhauve 1992 HE LG SSG/VfL Bensheim 1:55,60
266461 Fabian Laukamp 1994 BY LG TELIS FINANZ Regensburg 1:55,69
268027 Cornelius Rüth 1997 BY LG Stadtwerke München 1:56,18
18650 Marc Trometer 1994 BA MTG Mannheim 1:56,56
42831 Johannes Putzker 1997 LG Rems-Welland 1:56,62
600626 Reuben Kunitz 1996 PF LC Haßloch 1:57,93
600966 Alexander Köhler 1997 SL ATSV Saarbrücken 1:58,00
600387 Simon Fischer 1988 RL LG Vulkaneifel 1:58,20
27173 Timo Koch 1996 BA LG Region Karlsruhe 1:58,24
600649 Alexander Schmidt 1988 SL LSG Sbr.-Sulzbachtal 1:58,78
42425 Moritz Lindenmayer 1992 LG farbtex Nordschwarzwald 1:58,85
36187 Kai Schaupp 1994 VfL Waiblingen 1:59,00
25274 Daniel Thoma 1989 BA SV Waldkirch 2:01,40
601021 Peter Honzel 1970 SL LSG Sbr.-Sulzbachtal 2:04,00
21443 Oliver Pausch 1974 BA LSG Karlsruhe 2:05,55
26176 Ebrima Touray 1997 BA LG Region Karlsruhe 2:12,00
27159 Efrem Tesfay 1995 BA LG Region Karlsruhe 2:12,12
45528 Felix Strehle 1992 LG Rems-Welland 2:18,87
22342 Ruslan Fursa 1972 BA TV 1893 Rheinau 2:31,38
17718 Philipp Ziel 1996 BA LG Region Karlsruhe
14663 Nils Kruse 1995 BA LG Region Karlsruhe
48136 Marius Abraham 1997 LG Neckar-Enz
600166 Kevin Stadler 1993 TH Erfurter LAC
18455 Julius Hock 1995 BA LG Region Karlsruhe
16128 Marvin Hock 1997 BA LG Region Karlsruhe
20769 Wendelin Wäcker 1995 BA LG Region Karlsruhe
39109 Sascha Tyralla 1995 TUS Metzingen
1.500 m Lauf  (47 Teilnehmer)  zur Klassenübersicht
25795 Marcel Fehr 1992 SG Schorndorf 1846 3:41,36
27188 Patrick Zwicker 1994 BA LG Region Karlsruhe 3:43,24
601002 Sebastian Hendel 1995 SN LG Vogtland 3:45,11
42607 Andreas Lange 1991 NI LG Braunschweig 3:45,23
273202 Moritz Beinlich 1996 BY LG TELIS FINANZ Regensburg 3:45,55
2582 Christoph Kessler 1995 BA LG Region Karlsruhe 3:46,37
20210 Bastian Franz 1986 VfL Sindelfingen 3:47,01
5524 Tim Hoenig 1995 HH Hamburg Running 3:47,23
6081 Thilo Brill 1997 BE LG Nord Berlin 3:47,90
1129 Marco Giese 1992 WE SG Wenden 3:48,24
137150 Felix Rüger 1995 SN SC DHfK Leipzig 3:48,27
603185 Mohammed Redha Marrouf 1992 NO ASV Köln 3:49,00
20945 Felix Wammetsberger 1995 BA LG Region Karlsruhe 3:50,30
601524 Ruben Zillig 1992 HE LG SSG/VfL Bensheim 3:50,50
255451 Martin Weinländer 1995 BY LAC Quelle Fürth 3:51,00
26262 Semere Gaim 1995 BA LG Region Karlsruhe 3:52,23
35051 Marvin Dierker 1993 NI LG Osnabrück 3:53,08
23423 Jan Lukas Becker 1993 BA LG Region Karlsruhe 3:53,12
48186 Korbinian Völkl 1991 SSV Ulm 1846 3:53,44
Marco Müller 1993 NO Lauf-Club Euskirchen 3:53,85
6084 Mathias Jarck 1993 HH Hamburger SV 3:53,97
24439 Boris Rein 1988 LV Pliezhausen 2012 3:54,00
32369 Demian Werminghausen 1988 LV Pliezhausen 2012 3:54,26
43710 Fabian Konrad 1997 SSV Ulm 1846 3:54,86
603187 Robert Bough 1996 NO ASV Köln 3:55,00
6044 Lennart Jordan 1991 HH Hamburger SV 3:55,10
44919 Aimen Haboubi 1984 SSV Ulm 1846 3:55,48
600232 Erik Barzen 1996 RH TSV Schott Mainz 3:56,00
600233 Patrick Berlejung 1997 RH TSV Schott Mainz 3:56,02
600147 Marius Meyfarth 1991 PF LC Haßloch 3:56,09
1510 Lucas Bittigkoffer 1992 BA LG Region Karlsruhe 3:56,12
600113 Konstantin Filsinger 1995 PF ABC Ludwigshafen 3:56,30
602882 Rainer Gardeweg 1993 NO TSV Bayer 04 Leverkusen 3:57,20
602883 Björn Juschka 1994 NO TSV Bayer 04 Leverkusen 3:57,20
18544 Christoph Uhl 1988 BA LG Region Karlsruhe 3:57,23
9087 Felix Buck-Gramcko 1997 BE LG Nord Berlin 3:57,61
44544 Michael Wörnle 1997 LAV Stadtwerke Tübingen 3:57,85
37336 Jasper Laakmann 1997 NI LG Göttingen 3:58,30
48315 Christian Wörnle 1994 LAV Stadtwerke Tübingen 4:00,00
259110 Detlef Knall 1996 BY Team Memmert 4:00,00
35123 Theodor Haug 1995 LAV Stadtwerke Tübingen 4:00,45
601743 Hofe Arnfried vom 1989 HE VfL 1860 Marburg 4:05,48
18371 Philipp Kern 1995 BA TG Dietlingen 4:08,76
35917 Jakob Urbez 1997 TSG Eislingen 4:10,00
258744 Felix Luckner 1995 BY LG Reischenau-Zusamtal 4:15,00
15965 Domenik Hahn 1997 BA TV 1880 Huchenfeld 4:16,34
7217 Joshua Sickinger 1993 BA LG Region Karlsruhe 4:18,62
5.000 m Lauf  (83 Teilnehmer)  zur Klassenübersicht
4038 Dan Bürger 1997 BE LG Nord Berlin 8:31,80
603134 Sebastian Reinwand 1987 NO ART Düsseldorf 13:58,00
601392 Maximilian Thorwirth 1995 NO SFD 75 Düsseldorf-Süd 14:04,00
17995 Frederik Unewisse 1993 BA LG Region Karlsruhe 14:07,97
600388 Samuel Fitwi Sibhatu 1996 RL LG Vulkaneifel 14:10,0
603132 Simon Stützel 1986 NO ART Düsseldorf 14:11,33
254277 Jonas Koller 1993 BY LG TELIS FINANZ Regensburg 14:11,60
183048 Philipp Baar 1992 NO ART Düsseldorf 14:13,11
268962 Tim Ramdane Cherif 1994 BY LG TELIS FINANZ Regensburg 14:13,36
268945 Simon Boch 1994 BY LG TELIS FINANZ Regensburg 14:15,00
39525 Lukas Eisele 1997 LG Filder 14:15,0
14009 Jannik Arbogast 1992 BA LG Region Karlsruhe 14:15,62
602885 Toni Riediger 1993 NO ART Düsseldorf 14:15,87
601007 Tobias Blum 1995 SL LC Rehlingen 14:17,44
29128 Valentin Unterholzner 1992 BY LG Region Landshut 14:20,00
258884 Maximilian Zeus 1995 BY DJK Weiden 14:20,00
16971 Joseph Katib 1982 BY LAC Quelle Fürth 14:21,11
37803 Jens Mergenthaler 1997 SV Winnenden 14:22,00
257387 Felix Plinke 1989 BY LG TELIS FINANZ Regensburg 14:22,90
35662 Heiko Baier 1984 NI LG Braunschweig 14:25,00
26586 Peter Obenauer 1990 LAV Stadtwerke Tübingen 14:28,00
24690 Jens Ziganke 1988 BA SV Reichenau 14:30,00
268821 Yossief Tekle 1992 BY LG Reischenau-Zusamtal 14:30,00
600456 Marcus Müller 1997 TH Erfurter LAC 14:34,20
33254 Holger Freudenberger 1977 TSG 1845 Heilbronn 14:35,80
601768 Abdelkabir Zaroual 1990 HE LG Eintracht Frankfurt 14:36,00
27184 Christoph Wallner 1997 BA LG Region Karlsruhe 14:38,44
600336 Felix Thum 1987 HE LC Diabü Eschenburg 14:38,92
48200 Thomas Thyssen 1985 TV Zell a.N. 14:40,00
601758 Aaron Bienenfeld 1997 HE SSC Hanau-Rodenbach 14:40,00
4051 Carsten Krüger 1984 BE LAC Olympia 88 Berlin 14:40,51
601755 Elias Chesire 1988 HE TV Waldstraße Wiesbaden 14:41,24
22472 Johannes Hillebrand 1979 BY LG Stadtwerke München 14:44,78
600318 Jonas Götte 1996 RL LG Kreis Ahrweiler 14:45,00
140393 Sascha Strötzel 1992 SN SC DHfK Leipzig 14:45,31
600389 Christoph Gallo 1989 RL LG Vulkaneifel 14:46,23
41003 Michael Schramm 1990 LAV Stadtwerke Tübingen 14:46,57
9071 Michael Alber 1997 BE LG Nord Berlin 14:57,28
37095 Fabian Katz 1996 TSG 1845 Heilbronn 15:01,00
600335 Marius Trompetter 1991 NO ASV Köln 15:05,00
600230 Linus Stimmel 1996 RH Stimmel Sports 15:09,00
600630 Tim Könnel 1994 PF TuS Heltersberg 15:10,10
601764 Philipp Stuckhardt 1991 HE LG Alheimer Rotenburg-Bebra 15:14,00
26118 Friedrich Biniok 1995 BA MTG Mannheim 15:15,29
7217 Joshua Sickinger 1993 BA LG Region Karlsruhe 15:16,51
602730 André Rinke 1991 NO TV Refrath 15:18,11
259110 Detlef Knall 1996 BY Team Memmert 15:19,18
501748 Jonas Simon 1996 WE LC Paderborn 15:20,00
602735 Martin Pelzer 1988 NO Aachener TG 15:28,00
46354 Oliver Späth 1991 TV Zell a.N. 15:29,76
601760 Sebastian Hauf 1992 HE TV Trebur 15:30,00
26797 Alexander Sutschet 1995 BA LG Region Karlsruhe 15:30,00
29219 Heiko Thiele 1994 Triathlon Team Göppingen 15:30,00
27550 Sebastian Pieczarek 1986 BA LG Region Karlsruhe 15:30,00
21240 Felix Möhler 1990 BA LG Region Karlsruhe 15:47,12
603150 Fabian Bock 1996 NO TSV Bayer 04 Leverkusen 15:50,20
26859 Bjarne Friedrichs 1990 NI LG Göttingen 15:50,28
3859 Raffael Schaffrik 1988 BA SV Waldkirch 15:53,26
48453 Fabian Göggel 1990 SSV Ulm 1846 15:57,02
603149 Simon Bong 1997 NO TSV Bayer 04 Leverkusen 15:59,20
22837 Victor Larisch 1987 BA SV Waldkirch 16:09,33
601761 Raphael Schmitt 1981 HE TV Trebur 16:10,00
264868 Martin Stier 1987 BY MTV 1881 Ingolstadt 16:14,24
24572 Joshua Klein 1997 BA LG Region Karlsruhe 16:19,23
27559 Hannes Bitterling 1990 Triathlon Team Göppingen 16:24,95
23348 Balthasar Larisch 1991 BA SV Waldkirch 16:30,70
39560 Tobias Huber 1991 Triathlon Team Göppingen 16:38,58
15707 Maximilian Walter 1996 BA TV Eppelheim 16:40,00
39559 Benjamin Nagel 1989 Triathlon Team Göppingen 16:42,10
46908 Francesco Ballistreri 1985 TV Zell a.N. 16:59,00
24519 Stefan Gerber 1981 BA TV Bühlertal 17:12,00
4837 Nico Göllnitz 1979 HH Hamburger SV 17:13,00
19203 Stephan Okle 1987 BA SV Reichenau 17:18,40
33850 Felix Deißer 1988 Team Sport Evolution 17:25,77
27158 Markus Schäfer 1971 BA LG Region Karlsruhe 17:38,00
17129 Fabian Boschert-Hennrich 1997 BA LG Region Karlsruhe 18:25,61
14421 Oswald Renz 1959 BA TSV 05 Rot 18:27,00
616434 Anders Hespeler 1970 BA Lichtbund Karlsruhe 18:34,00
600627 Roland Schreiber 1969 PF LC Donnersberg 19:00,00
601730 Rainer Baisel 1962 HE SV 1896 Mörlenbach 19:48,00
26109 Yannick Wolfarth 1993 BA SV Waldkirch 17:15:00,00
18455 Julius Hock 1995 BA LG Region Karlsruhe
18544 Christoph Uhl 1988 BA LG Region Karlsruhe
weibliche Jugend U18
800 m Lauf  (11 Teilnehmer)  zur Klassenübersicht
600508 Lena Posniak 2001 TH Erfurter LAC 2:09,80
600387 Elisa Thomas 2000 TH LG Ohra Energie 2:11,34
601433 Lara Tortell 2001 HE TV 1897 Rendel e.V. 2:13,11
601793 Svenja Sommer 2000 HE TV Groß-Gerau 2:13,63
139751 Josefine Marie Werner 2000 SN SG Motor Gohlis-Nord 2:16,05
43079 Jana Uhl 2000 LSG Aalen 2:16,38
23079 Marlene Adolf 2002 BA TV Viktoria 1894 Dielheim 2:21,88
19767 Janine Winterbauer 2002 BA LG Region Karlsruhe 2:22,03
19480 Adeline Haisch 2000 BA LG Region Karlsruhe 2:24,18
21506 Mona Wieland 2000 BA TV Konstanz 2:25,08
25840 Amélie Simmes 2002 BA LAC Freiburg 2:29,95
1.500 m Lauf  (10 Teilnehmer)  zur Klassenübersicht
26202 Ingrid Eckardt 2001 BA LG Region Karlsruhe 4:35,88
601019 Sara Benfares 2001 SL LC Rehlingen 4:40,00
42138 Lea Steinbach 2000 ASV Aichwald 4:49,08
603140 Lisa Klee 2000 NO LAV Bayer Uerdingen/Dormagen 4:50,40
600234 Larissa Löb 2002 RH Stimmel Sports 4:54,00
43817 Janina Ruf 2001 LAV Stadtwerke Tübingen 4:57,60
22904 Mira Wehrle 2001 BA LC Breisgau 5:09,96
21021 Janina Schneider 2001 BA LAC Freiburg 5:17,68
24376 Jennifer Matern 2001 BA LG Kurpfalz 5:18,66
42567 Marie Weller 2000 LG Neckar-Enz
3.000 m Lauf  (6 Teilnehmer)  zur Klassenübersicht
153025 Linn Lara Kleine 2001 WE LG Olympia Dortmund 9:52,42
26201 Antje Pfüller 2002 BA LG Region Karlsruhe 9:54,34
41326 Josina Papenfuß 2000 NI TSG Westerstede 9:57,17
21038 Judith Kadel 2001 BA TSG 1862 Weinheim 10:20,17
20597 Celine Kistner 2000 BA LG Hardt 10:20,27
11729 Sophie Kretschmer 2001 ST LAC Aschersleben 10:29,88
5.000 m Lauf  (3 Teilnehmer)  zur Klassenübersicht
42215 Jule Vetter 2000 LAV Stadtwerke Tübingen 18:10,00
601017 Katharina Welker 2000 SL LC Rehlingen 18:30,00
601016 Janina Theobald 2000 SL LC Rehlingen 19:15,00
weibliche Jugend U20
800 m Lauf  (13 Teilnehmer)  zur Klassenübersicht
18765 Jana Reinert 1998 BA LG Region Karlsruhe 2:07,31
137484 Celine Noack 1998 SN Dresdner SC 1898 2:08,56
600402 Majtie Kolberg 1999 RL LG Kreis Ahrweiler 2:09,13
601923 Johanna Bethan 1998 NO TLV Germania Überruhr 2:10,40
600095 Morgane Dusaux 1999 RL LAZ Birkenfeld 2:11,00
603181 Berit Scheid 1999 NO TSV Bayer 04 Leverkusen 2:11,38
19182 Anna Schumacher 1998 BA LG Kurpfalz 2:13,20
111703 Maike Nehrig 1998 HE TV Groß-Gerau 2:15,87
13950 Theresa Oxfort 1999 WE TV Wattenscheid 01 2:16,82
19011 Lisann Deuchler 1998 BA TV Helmsheim 2:19,81
43552 Bianca Vetter 1998 LSG Aalen 2:20,25
20873 Franziska Heidt 1999 BA LG Region Karlsruhe
23827 Pia Julianna Ringhoffer 1998 BA LG Region Karlsruhe
1.500 m Lauf  (13 Teilnehmer)  zur Klassenübersicht
600241 Joana Staub 1998 SL LC Rehlingen 4:24,30
138140 Linda-Elisabeth Strigenz 1998 SN SC DHfK Leipzig 4:30,88
137538 Anna Kristin Fischer 1998 SN SC DHfK Leipzig 4:36,47
44296 Hanna Müller 1998 TSV Schmiden 4:38,38
137579 Luise Thate 1998 SN SC DHfK Leipzig 4:38,70
600509 Kira Reinhardt 1998 TH Erfurter LAC 4:38,90
601018 Selma Benfares 1999 SL LC Rehlingen 4:38,93
601320 Lena Ritzel 1999 HE VfL 1860 Marburg 4:42,88
41190 Prisca König 1998 LSG Aalen 4:46,76
24566 Marie Therese Leimbach 1998 BA MTG Mannheim 4:47,13
23675 Alicia Koßmann 1998 BA SG Leutershausen 4:54,10
19730 Leonie Trometer 1998 BA MTG Mannheim 5:00,00
35680 Antje Alt 1999 LG Brenztal 5:01,03
3.000 m Lauf  (6 Teilnehmer)  zur Klassenübersicht
600327 Lisa Oed 1999 HE SSC Hanau-Rodenbach 9:43,43
22001 Valerie Moser 1998 BA Running Team Ortenau 9:53,71
601437 Fraziska Althaus 1998 HE TV Waldstraße Wiesbaden 10:05,58
36830 Antonia Schiel 1998 NI TSV Wennigsen 10:08,56
27167 Johanna Flacke 1998 BA LG Region Karlsruhe 10:09,33
23386 Catalina Lausen 1998 BA LG Offenburg 10:19,27
5.000 m Lauf  (2 Teilnehmer)  zur Klassenübersicht
600327 Lisa Oed 1999 HE SSC Hanau-Rodenbach 16:37,00
24496 Christin Wintersig 1998 BA SV Reichenau 19:23,45
Frauen
800 m Lauf  (25 Teilnehmer)  zur Klassenübersicht
601462 Tanja Spill 1995 NO LAV Bayer Uerdingen/Dormagen 2:01,63
603147 Sarah Schmidt 1996 NO TSV Bayer 04 Leverkusen 2:01,80
602106 Carolin Walter 1988 NO TSV Bayer 04 Leverkusen 2:02,20
261365 Maren Orth 1990 BY LG TELIS FINANZ Regensburg 2:06,14
601806 Lena Klaassen 1991 NO TSV Bayer 04 Leverkusen 2:06,60
602150 Rebekka Ackers 1990 NO TSV Bayer 04 Leverkusen 2:06,80
140973 Julia Klein 1997 SN SC DHfK Leipzig 2:06,94
602151 Laura Vierbaum 1993 NO TSV Bayer 04 Leverkusen 2:08,20
10357 Felizitas Müller 1992 BA TS Ottersdorf 2:09,47
603148 Hannah Schäfer 1994 NO TSV Bayer 04 Leverkusen 2:09,80
600154 Bianca Prokopowicz 1993 RH TSV Schott Mainz 2:10,60
26436 Gina Daubenfeld 1991 SG Schorndorf 1846 2:11,05
37272 Julia Rieger 1994 LV Pliezhausen 2012 2:11,58
10358 Ester Müller 1992 BA TS Ottersdorf 2:12,65
603182 Kim Uhlendorf 1997 NO ASV Köln 2:13,00
603183 Inken Terjung 1996 NO ASV Köln 2:13,00
601278 Lorena Keil 1996 HE TV 1897 Rendel e.V. 2:13,81
135710 Jana Schwabe 1996 SN SC DHfK Leipzig 2:15,01
28423 Katja Fischer 1991 LV Pliezhausen 2012 2:17,00
600857 Julia Grommisch 1990 SL LSG Sbr.-Sulzbachtal 2:17,88
31438 Lisa Thaler 1991 SSV Ulm 1846 2:19,11
603184 Hannah Steinbuch 1995 NO ASV Köln 2:20,00
24579 Mareike Jung 1997 BA TV Konstanz 2:22,21
600391 Lena Marie Kaster 1994 RL LG Vulkaneifel 2:25,02
15756 Laura Ziel 1996 BA LG Region Karlsruhe
1.500 m Lauf  (23 Teilnehmer)  zur Klassenübersicht
24521 Corinna Harrer 1991 BY LG TELIS FINANZ Regensburg 4:15,88
603178 Susan Robb 1992 NO LAV Bayer Uerdingen/Dormagen 4:24,86
601413 Esther Jacobitz 1997 NO LAV Bayer Uerdingen/Dormagen 4:26,43
603141 Kira von Ehren 1995 NO LAV Bayer Uerdingen/Dormagen 4:27,34
264640 Kerstin Hirscher 1989 BY TG Viktoria Augsburg 4:28,30
140122 Kristin Zimmermann 1989 SN LG Neiße 4:32,44
14290 Sarah Hettich 1991 BA LG Region Karlsruhe 4:33,32
30934 Katrin Wallner 1992 LV Pliezhausen 2012 4:33,83
36748 Anne Spickhoff 1997 NI VfL Löningen 4:34,74
26127 Amélie Svensson 1996 BA LG Region Karlsruhe 4:36,06
44433 Julia Börner 1990 NI LG Göttingen 4:36,49
601747 Julia Altrup 1997 HE VfL 1860 Marburg 4:38,20
600392 Robin Vincent 1995 RL LG Vulkaneifel 4:44,47
13985 Laura Knörr 1992 BA TV Konstanz 4:45,00
24452 Sandra Braun 1996 BA TV Konstanz 4:45,81
27186 Michaela Walker 1989 BA LG Region Karlsruhe 4:47,01
29132 Jennifer Durst 1991 TSG 1845 Heilbronn 4:48,25
44674 Hanna Gröber 1996 LAV Stadtwerke Tübingen 4:50,00
601767 Leonie Gieser 1994 HE LG SSG/VfL Bensheim 4:50,40
261174 Hannah Kadner 1996 BY LAC Quelle Fürth 4:59,00
38033 Justine Seyb 1991 LG Neckar-Enz 5:04,57
27170 Tanja Grießbaum 1992 BA LG Region Karlsruhe
600154 Bianca Prokopowicz 1993 RH TSV Schott Mainz
3.000 m Lauf  (8 Teilnehmer)  zur Klassenübersicht
24521 Corinna Harrer 1991 BY LG TELIS FINANZ Regensburg 9:15,00
102017 Marie Burchard 1997 MV TC Fiko Rostock 9:28,75
102650 Mareike Bechtloff 1990 TH ASV Erfurt 10:00,00
20250 Lena Knirsch 1996 BA LG Region Karlsruhe 10:14,81
35546 Leyla Emmenecker 1996 VfL Sindelfingen 10:15,00
27186 Michaela Walker 1989 BA LG Region Karlsruhe 10:45,12
27165 Louisa Becker 1996 BA LG Region Karlsruhe 11:05,34
26127 Amélie Svensson 1996 BA LG Region Karlsruhe
5.000 m Lauf  (31 Teilnehmer)  zur Klassenübersicht
601021 Konstanze Klosterhalfen 1997 NO TSV Bayer 04 Leverkusen 14:55,00
37828 Alina Reh 1997 SSV Ulm 1846 15:16,39
43563 Hanna Klein 1993 SG Schorndorf 1846 15:27,09
12470 Fabienne Amrhein 1992 BA MTG Mannheim 15:58,00
24521 Corinna Harrer 1991 BY LG TELIS FINANZ Regensburg 15:59,72
45952 Anais Sabrié 1994 LAV Stadtwerke Tübingen 16:10,00
48143 Nada Ina Pauer 1986 VfB LC Friedrichshafen 16:15,72
22269 Melina Tränkle 1992 BA LG Region Karlsruhe 16:39,21
603143 Svenja Ojstersek 1994 NO ART Düsseldorf 16:42,31
163745 Inga Hundeborn 1996 NO Solinger LC 16:51,00
601771 Tinka Uphoff 1983 HE Spiridon Frankfurt 17:00,00
39388 Hannah Arndt 1989 LV Pliezhausen 2012 17:05,00
213012 Sandra Eltschkner 1987 MV SG Greifswald 17:06,25
601732 Anna Starostzik 1987 HE PSV Grün-Weiß Kassel 17:07,09
600373 Nora Schmitz 1992 RL Post-Sport-Verein Trier 17:07,09
601759 Dörte Nadler 1988 HE LG Baunatal/Fuldabrück 17:15,33
26127 Amélie Svensson 1996 BA LG Region Karlsruhe 17:23,00
601772 Iris Rautenberg 1995 HE Spiridon Frankfurt 17:30,00
264370 Julia Galuschka 1979 BY LG TELIS FINANZ Regensburg 17:32,84
603160 Nicole Warmer 1997 NO TSV Bayer 04 Leverkusen 17:45,20
4774 Isabelle Großkopff 1991 WE LG Dorsten 17:51,40
14290 Sarah Hettich 1991 BA LG Region Karlsruhe 17:58,45
20250 Lena Knirsch 1996 BA LG Region Karlsruhe 17:59,47
257896 Mira Parisek 1996 BY LG TELIS FINANZ Regensburg 18:17,07
23626 Sophia Kaiser 1996 BA LG Region Karlsruhe 18:19,19
25018 Franziska Pfeifer 1990 BA LG Region Karlsruhe 18:22,63
47552 Rahel Hartung 1997 SSV Ulm 1846 18:34,98
22566 Lena Schmidt 1986 BA LG Region Karlsruhe 18:43,12
21163 Verena Gempper 1990 BA LG Region Karlsruhe 19:11,12
15871 Maybritt Schillinger 1997 BA LG Kurpfalz 19:47,66
35546 Leyla Emmenecker 1996 VfL Sindelfingen